Roanoke, VA

3:03 AM EST on December 16, 2019 (GMT -0500)
Roanoke Regional-Woodrum

Weather History for KROA - November, 2019

Change the Weather History Date:

Saturday, November 16, 2019

  Actual Average Record
Temperature  
Mean Temperature 39 °F 48 °F  
Max Temperature 48 °F 59 °F 82 °F (1931)
Min Temperature 30 °F 38 °F 17 °F (1967)
Degree Days  
Heating Degree Days 26 17  
Month to date heating degree days 344 232  
Since 1 July heating degree days 500 529  
Cooling Degree Days 0 0  
Month to date cooling degree days 0 0  
Year to date cooling degree days 1757 1207  
Moisture  
Dew Point 25 °F    
Average Humidity 55    
Maximum Humidity 72    
Minimum Humidity 45    
Precipitation  
Precipitation 0.00 in 0.12 in 2.94 in (1989)
Month to date precipitation 0.04 1.82  
Year to date precipitation 38.43 36.73  
Snow  
Snow 0.00 in - - ()
Month to date snowfall T  
Since 1 July snowfall T  
Since 1 September snowfall T  
Snow Depth 0.00 in    
Sea Level Pressure  
Sea Level Pressure 30.27 in    
Wind  
Wind Speed 9 mph ()    
Max Wind Speed 17 mph    
Max Gust Speed 24 mph    
Visibility 10.0 miles    
Events Rain    
T = Trace of Precipitation, MM = Missing Value Source: Averaged Metar Reports

Daily Weather History Graph

Daily Weather History Graph

Search for Another Location

Airport or City:

Astronomy

Nov. 16, 2019 Rise Set
Actual Time 6:59 AM EST 5:08 PM EST
Civil Twilight 6:32 AM EST 5:36 PM EST
Nautical Twilight 6:00 AM EST 6:08 PM EST
Astronomical Twilight 5:29 AM EST 6:39 PM EST
Moon 8:42 PM EST 10:50 AM EST
Length of Visible Light 11h 04m
Length of Day
10h 08m
Waning Gibbous, 82% of the Moon is Illuminated
Nov 16
Waning Gibbous
Nov 19
Last Quarter
Nov 26
New
Dec 4
First Quarter
Dec 12
Full

Hourly Weather History & Observations

Time (EST) Temp. Windchill Dew Point Humidity Pressure Visibility Wind Dir Wind Speed Gust Speed Precip Events Conditions
12:54 AM 37.9 °F 32.1 °F 25.0 °F 60% 30.20 in 10.0 mi NNE 8.1 mph - N/A   Clear
1:54 AM 39.0 °F 32.8 °F 24.1 °F 55% 30.19 in 10.0 mi NNE 9.2 mph - N/A   Clear
4:54 AM 37.0 °F 29.3 °F 23.0 °F 57% 30.21 in 10.0 mi NNE 11.5 mph - 0.00 in Rain Light Rain
5:54 AM 36.0 °F 30.3 °F 23.0 °F 59% 30.24 in 10.0 mi NE 6.9 mph - 0.00 in   Clear
6:54 AM 36.0 °F 28.0 °F 23.0 °F 59% 30.27 in 10.0 mi NE 11.5 mph - N/A   Partly Cloudy
7:54 AM 36.0 °F 28.0 °F 24.1 °F 62% 30.29 in 10.0 mi NNE 11.5 mph - N/A   Partly Cloudy
8:54 AM 37.9 °F 30.5 °F 25.0 °F 60% 30.32 in 10.0 mi NNE 11.5 mph - N/A   Partly Cloudy
9:54 AM 39.0 °F 32.3 °F 27.0 °F 62% 30.32 in 10.0 mi North 10.4 mph - N/A   Clear
10:54 AM 42.1 °F 35.2 °F 27.0 °F 55% 30.31 in 10.0 mi ENE 12.7 mph - N/A   Clear
11:54 AM 43.0 °F 36.8 °F 27.0 °F 53% 30.29 in 10.0 mi NNE 11.5 mph - N/A   Clear
12:54 PM 45.0 °F 38.9 °F 27.0 °F 49% 30.26 in 10.0 mi NE 12.7 mph - N/A   Clear
1:54 PM 46.9 °F - 27.0 °F 46% 30.24 in 10.0 mi NE 8.1 mph - N/A   Clear
2:54 PM 46.9 °F - 27.0 °F 46% 30.22 in 10.0 mi NE 12.7 mph - N/A   Clear
3:54 PM 46.9 °F - 27.0 °F 46% 30.23 in 10.0 mi NE 11.5 mph - N/A   Clear
4:54 PM 44.1 °F 38.1 °F 27.0 °F 51% 30.24 in 10.0 mi NE 11.5 mph - N/A   Clear
5:54 PM 42.1 °F 38.4 °F 26.1 °F 53% 30.27 in 10.0 mi ENE 5.8 mph - N/A   Clear
6:54 PM 41.0 °F 35.2 °F 26.1 °F 55% 30.28 in 10.0 mi ENE 9.2 mph - N/A   Clear
7:54 PM 39.0 °F 33.4 °F 25.0 °F 57% 30.29 in 10.0 mi NE 8.1 mph - N/A   Clear
8:54 PM 37.9 °F 32.7 °F 24.1 °F 57% 30.30 in 10.0 mi NE 6.9 mph - N/A   Clear
9:54 PM 37.0 °F 30.4 °F 23.0 °F 57% 30.30 in 10.0 mi NE 9.2 mph - N/A   Partly Cloudy
10:54 PM 36.0 °F 29.0 °F 21.9 °F 57% 30.30 in 10.0 mi ENE 9.2 mph - N/A   Clear
11:54 PM 36.0 °F 28.0 °F 18.0 °F 48% 30.30 in 10.0 mi NNE 11.5 mph - N/A   Scattered Clouds